STARLINK-31885, 59660

Orbit data source: Space-Track

STARLINK-31885, 59660 is a payload satellite owned by SpaceX/Seattle (US) in LEO that was launched on Mon, 06 May 2024 UTC via an FALCON 9 launch vehicle from the Air Force Eastern Test Range (AFETR). Payload-class satellites include a variety of spacecraft equipped with specific instruments for various scientific and technological missions. These include communications satellites like Starlink; space stations such as the ISS; scientific satellites like the Hubble; Earth observation satellites from companies like Planet Labs, Umbra, and HawkEye 360; GPS; miniature CubeSats for education and research; and military/defense satellites.

Loading next visibility...
Identifier
59660, 2024-084G
Orbit
LEO
Country
Flag of USUS
Related business
Manufacturer
SpaceX/Seattle
Mission
Operational Commercial Communications
Bus & Motor
STARLINK V2M, Unknown motor
Mass
730 kg wet, ~700 kg dry
Launch date (UTC)
2024-05-06 (2 years ago)
Launch vehicle
FALCON 9
Launch site
Air Force Eastern Test Range (AFETR)
Object type
Payload
Rocket body
Debris
Shape & HBR
Box + 2 Pan, 17.7 m
Radar Cross Section
33.884 m², Large (>1 m²)

Expand to show TLE details & history
Last TLE update: 5 hours ago

TLE from 5 hours ago
0 STARLINK-31885
1 59660U 24084G   26073.53453882  .00001829  00000-0  75951-4 0  9991
2 59660  43.0040  11.0188 0000566 250.6868 109.3923 15.27588664105151
Epoch: 2026-03-14T12:49Z
TLE epoch observation values (Epoch: 2026-03-14T12:49:44.154Z)
Latitude
0.00003°
Longitude
6.43053°
Altitude
482.928 km
Speed
7.626 km/s
True Right ascension
00h 44m 04s
True Declination
0° 00' 00"
Sunlit
Object was in daylight at epoch
Visualization orbit readout
Latitude
Unknown
Longitude
Unknown
Altitude
Unknown
Speed
Unknown
Apparent Right ascension
Unknown
Apparent Declination
Unknown
Sunlit
N/A
Visualization observer readout
Local Sidereal Time
22:38:38
Azimuth
Unknown
Elevation
Unknown
Doppler factor
Unknown
Orbital elements
Apogee altitude
485.356 km
Perigee altitude
484.579 km
Semi-major axis
6,863.105 km
Eccentricity
0.00006
Inclination
43.004°
RAAN
11.0188°
Arg. of periapsis
250.6868°
True anomaly
109.39842°
Mean anomaly
109.3923°
Eccentric anomaly
109.39536°
Mean motion
3.81735 °/min
Orbital period
94.31 mins
BSTAR
0.000075951
Loading maneuver chart data...
Computing Atmospheric mass density...
Loading historical data...
Loading historical data...
Loading historical data...
Loading historical data...
Loading historical data...
Loading historical data...
Loading historical data...

Documentation

Showing up to 5 results
|